Theta_e
361 362 361 360 359 357 357 355 354 355 354 353 354 352 352 353 352 351 351 349 348 348 347 345 345 342 340 339 338 339 339 339 339 338 337 337 336 336 338 338 336 337
361 362 361 361 360 358 357 356 354 355 355 354 355 353 352 353 352 350 350 349 348 348 348 346 344 342 340 338 338 339 340 339 339 338 337 338 336 335 337 338 337 336
362 362 362 361 360 358 358 358 354 354 356 356 355 354 352 353 352 350 349 349 347 347 348 347 344 342 340 339 338 339 340 339 339 338 338 338 337 336 336 337 337 336
362 362 361 360 360 359 358 359 357 356 357 357 356 355 353 352 351 350 349 349 348 346 346 347 345 342 341 340 338 339 339 339 339 338 338 338 337 336 336 337 337 336
363 362 361 360 360 360 359 359 358 357 357 358 357 356 354 353 351 350 351 349 348 347 346 346 345 343 341 340 339 340 339 339 339 338 338 337 336 336 337 337 337 337
364 363 362 361 360 360 360 359 359 358 357 357 357 356 355 354 352 349 350 350 348 348 347 346 345 343 341 341 340 340 339 339 339 338 338 338 336 335 335 336 336 337
364 363 362 361 360 361 361 360 359 359 358 357 357 357 356 355 353 351 349 350 349 348 347 346 345 343 341 341 340 340 340 340 339 338 337 337 338 336 335 335 336 337
364 364 363 362 361 361 361 360 360 359 358 358 357 357 356 355 354 352 350 350 349 349 348 347 345 343 342 342 341 340 340 340 340 339 337 336 338 338 336 335 335 335
364 364 363 363 362 361 361 360 360 359 359 358 358 357 357 356 355 354 352 351 350 349 348 347 345 344 343 342 342 340 341 341 340 339 338 337 337 338 337 336 336 335
364 364 363 363 362 361 361 361 360 359 358 358 358 357 357 357 355 355 354 352 351 350 349 347 346 344 343 343 342 341 340 341 341 340 338 337 337 337 336 336 336 336
364 364 364 363 363 362 361 361 360 359 358 358 358 358 358 357 356 355 355 353 352 351 349 348 346 345 344 344 343 342 340 340 340 340 339 338 337 337 336 335 336 336
364 364 364 364 363 362 361 360 359 359 358 358 358 358 357 357 357 356 355 354 353 352 350 348 347 346 345 344 344 342 341 340 339 340 340 339 338 337 335 335 335 335
364 364 364 363 363 362 361 360 359 358 358 358 357 357 356 356 355 355 355 355 353 353 351 349 348 347 346 344 344 343 342 341 339 339 339 339 339 339 338 337 336 335
364 364 364 364 363 362 361 360 359 358 358 358 358 357 356 355 355 354 354 355 354 354 352 350 348 347 346 345 344 343 342 341 340 338 337 337 339 340 339 338 337 336
363 363 364 364 363 362 361 360 359 358 357 357 358 358 357 357 356 355 355 355 356 355 353 351 349 347 346 345 344 343 342 341 340 338 336 336 338 339 339 338 338 337
363 363 363 364 364 363 362 361 359 358 358 358 358 359 358 358 357 357 357 357 357 356 355 352 350 348 346 345 344 343 342 341 340 338 336 336 339 340 339 339 338 337
363 362 362 363 364 363 363 361 360 359 358 358 359 360 359 359 358 358 358 359 358 358 356 353 351 349 347 345 344 343 342 341 340 339 337 338 340 341 340 339 338 337
363 363 363 363 364 364 364 363 361 360 359 358 359 360 360 360 359 359 359 360 359 358 356 354 352 350 348 346 345 343 342 341 340 339 339 339 340 341 339 338 337 336
364 365 365 364 364 364 364 364 362 360 360 359 358 360 361 360 360 359 359 359 359 358 356 355 353 351 349 347 346 344 343 341 340 340 340 340 341 340 339 338 337 336
365 366 366 365 365 364 364 364 363 361 361 360 359 360 361 360 360 359 359 359 358 357 356 355 354 352 350 348 346 345 343 342 340 340 341 341 341 340 338 337 335 334
366 366 367 367 366 364 365 364 364 363 362 361 361 361 361 361 361 359 358 357 357 356 355 354 353 352 350 349 347 345 344 342 340 340 341 341 341 339 338 336 332 330
366 366 367 368 367 366 366 366 365 364 362 362 361 361 361 360 360 359 358 357 355 355 354 353 352 351 350 349 348 346 344 342 340 340 342 341 339 338 337 334 330 329
367 368 369 369 369 368 367 366 366 364 363 363 362 361 361 360 359 359 358 357 355 354 353 352 351 351 351 350 349 347 344 342 341 342 342 341 339 338 337 334 331 330
368 369 370 370 370 369 368 366 366 364 364 363 361 360 360 359 358 358 356 356 355 353 353 352 350 350 350 349 348 346 343 342 341 342 341 339 339 337 335 333 331 330
370 371 371 370 369 367 366 366 365 364 363 362 361 360 359 358 358 357 355 355 354 353 352 351 350 349 348 347 346 344 342 341 340 340 338 337 336 335 333 332 330 329
372 371 370 369 367 366 365 364 363 362 361 361 360 359 358 357 356 356 354 353 353 352 351 350 349 348 346 345 344 342 341 340 339 338 337 335 334 332 331 331 329 328
Wind_Speed
35 34 33 32 32 31 30 31 31 31 31 31 31 29 30 32 30 29 29 26 26 25 23 22 21 19 18 16 14 15 18 18 18 16 15 14 14 13 13 11 10 9
36 35 34 33 33 32 31 32 33 33 32 32 31 29 30 32 31 30 30 27 26 26 25 23 23 21 19 18 16 17 19 19 19 18 16 15 14 15 15 12 11 11
36 35 35 34 34 33 32 32 34 34 33 33 33 32 31 32 31 29 29 29 27 27 26 24 24 23 21 20 19 19 20 19 20 19 18 18 16 16 17 14 12 13
36 36 37 36 35 35 33 32 34 34 33 34 34 33 33 32 32 30 29 30 30 28 27 26 25 24 23 23 22 21 21 20 20 19 19 20 20 18 18 15 13 13
37 37 37 37 35 35 34 33 34 35 35 35 34 34 34 33 32 31 30 31 32 30 29 29 27 26 25 26 25 24 23 23 22 20 19 21 21 21 21 19 15 13
37 37 38 38 36 36 36 35 36 37 36 36 35 34 34 34 33 32 31 32 33 32 31 31 30 29 28 29 28 26 25 25 25 24 23 22 21 22 22 21 19 16
37 38 38 38 37 36 36 37 37 37 37 36 36 35 34 34 34 34 33 32 33 33 33 33 33 32 31 31 30 28 26 26 26 27 26 24 22 23 24 22 21 21
37 38 39 38 37 37 37 38 38 38 37 36 36 36 35 35 35 35 35 33 33 34 34 35 34 34 34 33 32 30 29 28 28 29 29 28 25 25 25 23 21 22
37 39 39 38 38 37 38 39 39 38 38 37 37 36 35 36 36 36 36 35 34 34 35 36 37 36 36 35 34 32 31 31 30 30 30 30 29 27 26 24 23 24
38 39 39 39 38 39 39 39 39 39 39 38 37 37 36 37 37 36 37 37 36 36 35 36 37 38 37 36 35 35 34 33 32 31 31 31 31 30 28 27 25 25
39 39 39 39 39 40 40 40 39 38 39 39 38 38 38 37 37 36 37 38 39 39 38 37 37 38 37 36 36 36 35 35 34 33 32 32 32 32 31 30 29 27
40 40 40 41 41 41 40 40 39 38 38 39 39 39 38 38 37 37 37 38 39 39 39 39 38 38 38 37 37 36 36 35 35 34 33 33 33 33 33 32 31 29
41 41 41 42 42 42 41 40 40 39 39 39 39 39 38 37 38 38 38 38 38 38 38 38 37 37 37 37 36 36 36 36 35 35 36 35 32 31 32 32 30 28
43 42 42 42 43 42 41 40 40 40 39 38 38 38 38 37 36 36 36 36 36 36 35 35 35 35 36 36 35 34 35 36 36 36 35 33 30 29 29 28 27 26
43 42 41 41 42 41 41 40 40 40 39 37 37 38 37 35 33 32 33 33 33 33 32 33 33 34 35 35 34 34 35 36 37 35 32 30 29 29 27 25 25 24
42 40 40 40 41 41 42 41 40 39 37 36 36 37 36 33 31 30 31 32 31 31 31 32 33 35 36 36 36 36 36 37 35 33 32 31 29 26 25 24 23 21
40 39 39 40 40 40 40 40 39 37 36 34 33 34 33 32 31 30 30 31 31 31 32 33 34 36 36 36 37 37 37 36 34 33 33 31 27 24 23 22 20 19
39 39 39 39 40 39 38 38 37 35 33 32 31 32 32 32 32 31 30 30 31 32 33 34 35 36 36 37 37 38 38 36 33 32 31 28 27 25 24 22 21 20
40 40 39 39 39 39 37 36 35 33 32 31 30 30 31 32 32 30 28 28 30 31 32 34 35 35 37 37 37 38 39 36 31 29 28 28 28 27 25 23 22 21
41 40 40 39 39 38 35 34 34 32 31 30 28 28 29 30 30 28 26 26 28 29 31 33 35 36 37 36 35 37 39 36 31 28 27 27 27 27 25 23 23 24
41 40 39 38 37 36 35 34 33 32 30 28 27 27 28 28 28 26 24 24 26 28 30 32 33 34 34 33 33 35 37 35 31 28 27 26 27 28 26 25 26 27
41 39 38 36 35 35 34 33 32 31 29 28 27 25 25 25 26 25 25 25 25 26 26 26 26 27 28 29 30 32 34 34 31 29 29 28 27 26 25 25 26 26
41 38 36 35 35 34 33 33 33 32 30 27 26 24 24 23 23 23 24 24 23 22 19 18 18 20 23 25 27 30 34 33 31 30 29 28 26 25 24 24 24 23
40 38 37 36 36 35 34 33 33 32 30 28 26 24 22 22 21 20 20 20 21 21 19 18 17 18 20 22 26 30 34 33 31 30 29 27 25 23 22 22 22 21
39 39 38 38 37 35 35 34 33 31 29 27 24 22 20 19 19 18 18 18 19 20 20 19 19 19 19 21 26 31 33 32 31 29 27 25 23 22 20 20 20 19
39 39 39 38 37 35 34 33 31 29 27 24 22 20 18 17 16 17 17 17 17 18 19 18 18 19 20 22 27 31 33 32 30 28 25 24 23 22 20 20 19 19
Wind_Direction
197 197 198 197 197 198 197 196 194 191 189 190 192 192 193 197 197 195 196 196 195 197 196 195 196 199 201 202 202 197 193 190 191 193 194 197 203 200 196 201 206 214
197 197 197 197 198 200 200 199 196 193 194 196 198 199 198 198 198 196 198 197 195 198 200 198 198 199 199 201 198 191 188 191 195 194 194 197 202 203 202 202 205 210
197 196 197 197 197 199 199 198 196 196 198 200 202 202 198 197 198 198 201 201 197 198 200 199 199 199 200 201 200 196 191 192 195 195 195 198 200 202 204 206 209 211
197 196 197 198 198 198 198 196 195 198 200 201 203 203 200 199 199 200 203 203 200 199 199 200 201 202 203 204 205 204 200 196 194 195 199 201 202 202 204 208 211 211
197 197 198 199 199 198 197 197 198 199 200 202 203 203 202 201 201 203 204 203 202 201 200 202 204 205 206 206 207 207 207 204 199 198 201 203 204 205 206 208 209 207
197 197 198 200 199 198 198 199 201 202 202 202 203 203 203 203 203 204 204 203 203 203 202 203 205 206 206 207 207 208 210 210 206 202 202 203 205 208 209 210 211 210
198 198 199 200 200 199 199 200 202 204 204 203 203 203 203 204 204 203 204 204 204 204 204 205 205 206 205 206 207 208 210 212 210 207 207 207 208 210 211 212 213 214
198 199 200 200 200 200 201 203 204 204 204 204 203 203 204 205 205 205 205 205 205 206 206 206 206 205 205 205 206 207 208 210 210 210 210 210 210 210 210 211 215 215
199 200 200 200 200 201 203 205 206 206 205 204 204 204 205 206 207 207 206 206 207 207 207 206 206 205 204 205 206 206 206 207 209 211 212 211 212 212 208 209 216 217
200 200 200 200 200 202 205 206 207 207 206 206 206 206 206 208 209 209 209 208 208 208 207 206 205 204 205 206 206 206 206 206 207 210 213 214 215 215 211 210 214 213
201 201 200 201 201 204 206 207 207 208 208 207 207 207 208 209 210 210 210 210 210 210 210 208 207 206 205 206 207 207 207 207 207 209 213 216 217 218 214 213 215 215
201 201 201 201 202 205 206 207 207 208 208 208 208 208 210 210 211 211 211 212 212 212 212 211 210 208 207 207 207 206 207 209 209 209 213 216 218 219 218 217 219 220
201 201 202 202 204 206 206 207 208 209 209 210 209 209 210 211 212 213 213 214 214 214 214 213 211 209 208 207 206 206 206 208 210 211 214 216 217 218 219 219 220 221
202 202 202 203 204 206 207 208 209 210 211 211 211 211 212 213 213 213 214 215 216 215 215 214 212 210 209 207 205 205 205 208 212 213 215 217 219 220 218 216 218 220
202 202 202 203 205 206 207 209 210 211 212 212 212 213 214 214 214 214 214 215 216 216 216 215 213 211 210 208 206 204 206 211 213 213 215 219 221 221 220 218 219 220
202 201 201 203 204 206 207 208 210 211 211 212 212 213 214 213 213 214 215 214 213 214 214 214 214 213 213 212 209 207 209 212 212 211 213 217 219 217 215 216 215 213
201 201 201 203 204 206 207 208 209 210 210 211 211 210 210 209 210 212 215 214 212 212 212 213 215 215 215 214 212 211 212 212 211 210 212 214 215 210 204 202 203 205
200 199 200 202 204 205 206 207 207 208 209 209 208 206 205 205 207 210 212 212 211 210 211 213 215 216 216 215 214 214 213 211 210 210 210 211 210 203 195 193 197 203
198 198 199 201 203 204 205 205 205 206 206 206 205 204 202 202 204 207 209 209 208 208 211 214 216 217 217 216 215 215 214 211 208 206 207 208 205 198 191 193 200 207
196 196 197 199 200 201 201 201 202 202 201 200 200 198 197 198 200 202 204 206 207 209 213 216 217 217 216 216 216 216 214 209 204 203 205 205 200 194 192 199 209 214
195 195 195 196 196 196 196 197 196 194 192 192 192 190 190 191 193 194 197 201 205 210 212 214 215 215 214 214 215 215 212 207 203 203 204 200 195 195 198 205 212 216
193 192 192 191 190 189 190 189 186 183 183 185 185 185 187 189 192 196 200 204 205 206 207 208 209 210 210 211 212 212 209 205 202 200 197 192 190 194 199 205 210 214
190 188 187 184 182 181 180 179 177 176 176 178 179 181 186 191 196 201 207 211 210 207 206 205 205 208 209 208 208 209 206 200 196 192 187 184 185 188 193 199 206 212
187 184 180 177 175 174 173 171 172 174 175 177 179 181 186 193 197 201 205 210 210 208 210 214 214 213 211 207 206 205 199 192 189 185 180 179 182 185 192 200 206 212
181 178 174 171 170 170 169 168 170 173 176 180 183 183 182 185 190 194 196 200 203 203 206 211 212 210 208 204 201 197 192 188 185 180 174 176 182 186 193 202 208 214
173 171 169 167 165 165 165 166 168 170 172 174 176 177 173 169 171 176 179 185 194 199 201 205 208 205 200 197 194 191 189 188 185 181 179 182 188 194 202 209 216 224